Stations météo

réclame
Mon MeteoGroup
Malmo/Sturup, Suède (2636): Température de l'air & dewpoint: 14.01.2020 08:00:00 - 20.01.2020 08:00:00 (CET)Malmo/Sturup, Suède (2636): Vitesse du vent: 14.01.2020 08:00:00 - 20.01.2020 08:00:00 (CET)Malmo/Sturup, Suède (2636): Direction du vent: 14.01.2020 08:00:00 - 20.01.2020 08:00:00 (CET)Malmo/Sturup, Suède (2636): reduced air pressure: 14.01.2020 08:00:00 - 20.01.2020 08:00:00 (CET)Malmo/Sturup, Suède (2636): visibility: 14.01.2020 08:00:00 - 20.01.2020 08:00:00 (CET)
Date & Time tt [°C] td [°C] ff [km/h] ff [knt] dd ppp [hPa] vv [km]
20.01.2020 08:00:00 4,0 4,0 18 10 WSW - 4,6
20.01.2020 07:00:00 3,4 2,8 15 8 WSW 1040,7 8
20.01.2020 06:00:00 2,7 2,4 13 7 W 1040,4 6
20.01.2020 05:00:00 0,6 0,3 11 6 WSW 1040,3 3,0
20.01.2020 04:00:00 0,9 0,3 9 5 WSW 1040,4 7
20.01.2020 03:00:00 0,9 0,0 8 4 W 1040,5 10
20.01.2020 02:00:00 1,2 -0,3 11 6 W 1040,4 10
20.01.2020 01:00:00 0,9 -0,1 9 5 WSW 1039,9 10
20.01.2020 00:00:00 1,4 0,2 9 5 W 1039,7 10
19.01.2020 23:00:00 1,7 0,8 11 6 WNW 1039,4 10
19.01.2020 22:00:00 1,2 0,3 11 6 WNW 1038,6 10
19.01.2020 21:00:00 2,0 1,1 13 7 WNW 1038,0 10
19.01.2020 20:00:00 2,2 1,0 13 7 WNW 1037,5 10
19.01.2020 19:00:00 2,2 1,0 8 4 W 1036,7 10
19.01.2020 18:00:00 3,0 1,5 9 5 W 1035,6 10
19.01.2020 17:00:00 3,5 2,0 11 6 WNW 1034,7 10
19.01.2020 16:00:00 4,5 3,0 11 6 WNW 1033,7 10
19.01.2020 15:00:00 5,6 3,9 9 5 NW 1032,9 10
19.01.2020 14:00:00 5,5 3,5 15 8 NNW 1031,9 10
19.01.2020 13:00:00 4,8 3,3 13 7 WNW 1031,4 10
19.01.2020 12:00:00 4,9 2,9 13 7 NW 1030,8 10
19.01.2020 11:00:00 4,7 3,2 13 7 W 1030,1 10
19.01.2020 10:00:00 4,6 2,9 8 4 W 1028,7 10
19.01.2020 09:00:00 4,3 2,6 15 8 WNW 1027,8 10
19.01.2020 08:00:00 4,0 2,4 15 8 W 1026,5 10
19.01.2020 07:00:00 3,7 2,5 13 7 W 1025,4 10
19.01.2020 06:00:00 3,3 2,4 14 8 W 1024,8 11
19.01.2020 05:00:00 3,0 1,8 14 8 W 1023,8 10
19.01.2020 04:00:00 3,5 2,3 16 9 W 1023,1 10
19.01.2020 03:00:00 3,8 2,6 18 10 W 1022,3 10
19.01.2020 02:00:00 3,7 2,2 21 11 W 1021,6 10
19.01.2020 01:00:00 3,8 2,3 18 10 W 1020,7 10
19.01.2020 00:00:00 4,0 2,7 22 12 W 1020,0 10
18.01.2020 23:00:00 4,1 2,9 22 12 WSW 1019,4 10
18.01.2020 22:00:00 5,0 3,7 22 12 WSW 1018,9 10
18.01.2020 21:00:00 4,9 2,9 28 15 WSW 1018,3 10
18.01.2020 20:00:00 4,7 3,5 28 15 WSW 1017,9 10
18.01.2020 19:00:00 5,1 3,8 29 16 WSW 1017,2 9
18.01.2020 18:00:00 5,2 3,5 29 16 SW 1016,7 10
18.01.2020 17:00:00 5,3 3,3 29 16 SW 1016,2 10
18.01.2020 16:00:00 5,1 3,1 34 18 SW 1015,8 10
18.01.2020 15:00:00 5,1 2,6 29 16 SW 1015,3 10
18.01.2020 14:00:00 5,3 2,8 34 18 SW 1015,0 10
18.01.2020 13:00:00 5,4 2,4 37 20 SW 1014,6 10
18.01.2020 12:00:00 5,3 2,3 35 19 SW 1014,4 10
18.01.2020 11:00:00 5,4 2,9 29 16 SW 1014,6 10
18.01.2020 10:00:00 5,4 2,9 29 16 SW 1014,4 10
18.01.2020 09:00:00 5,3 3,3 29 16 WSW 1014,0 10
18.01.2020 08:00:00 5,2 3,2 34 18 SW 1013,5 10
18.01.2020 07:00:00 5,6 3,1 29 16 SW 1012,8 10
18.01.2020 06:00:00 5,5 3,5 29 16 WSW 1012,5 10
18.01.2020 05:00:00 6,5 5,4 25 14 SW 1012,2 11
18.01.2020 04:00:00 6,3 5,9 22 12 WSW 1011,7 5
18.01.2020 03:00:00 6,2 5,9 18 10 SW 1011,3 2,7
18.01.2020 02:00:00 5,4 5,0 11 6 SSW 1011,1 3,5
18.01.2020 01:00:00 5,1 4,1 16 9 SSW 1010,9 10
18.01.2020 00:00:00 4,8 3,6 15 8 SSW 1011,1 10
17.01.2020 23:00:00 4,4 3,2 13 7 SSE 1011,4 10
17.01.2020 22:00:00 3,5 2,3 15 8 S 1012,0 10
17.01.2020 21:00:00 4,0 2,8 16 9 SSE 1012,3 10
17.01.2020 20:00:00 4,5 3,3 16 9 SSE 1013,0 10
17.01.2020 19:00:00 4,9 3,6 18 10 SSE 1013,5 10
17.01.2020 18:00:00 4,7 3,5 18 10 SSE 1014,0 10
17.01.2020 17:00:00 4,7 3,5 18 10 SSE 1014,4 8
17.01.2020 16:00:00 4,8 3,6 21 11 SE 1014,8 5
17.01.2020 15:00:00 5,7 4,0 22 12 SSE 1015,5 10
17.01.2020 14:00:00 6,9 4,0 22 12 SSE 1015,9 10
17.01.2020 13:00:00 7,7 4,6 24 13 S 1016,9 10
17.01.2020 12:00:00 7,1 4,4 21 11 SSE 1017,8 10
17.01.2020 11:00:00 6,2 4,5 21 11 SSE 1018,7 10
17.01.2020 10:00:00 5,2 4,2 21 11 SSE 1019,3 10
17.01.2020 09:00:00 4,3 3,7 16 9 SSE 1019,6 8
17.01.2020 08:00:00 3,8 3,2 16 9 SSE 1020,2 8
17.01.2020 07:00:00 3,7 3,1 15 8 SSE 1020,4 8
17.01.2020 06:00:00 3,8 2,9 18 10 S 1020,8 10
17.01.2020 05:00:00 4,3 3,1 18 10 S 1021,6 10
17.01.2020 04:00:00 4,3 3,1 18 10 S 1021,9 10
17.01.2020 03:00:00 4,5 3,3 21 11 S 1022,6 10
17.01.2020 02:00:00 4,3 3,1 15 8 SSE 1023,2 10
17.01.2020 01:00:00 3,8 2,6 16 9 SSE 1024,0 10
17.01.2020 00:00:00 3,1 2,8 13 7 S 1024,7 10
16.01.2020 23:00:00 2,7 2,4 15 8 SSE 1025,1 10
16.01.2020 22:00:00 3,8 3,5 11 6 SE 1025,8 7
16.01.2020 21:00:00 1,9 1,6 11 6 SSW 1025,8 5
16.01.2020 20:00:00 3,3 2,4 11 6 SSW 1026,0 5
16.01.2020 19:00:00 5,1 4,1 18 10 SW 1026,0 6
16.01.2020 18:00:00 4,8 3,5 13 7 SW 1025,5 10
16.01.2020 17:00:00 5,3 3,3 22 12 WSW 1025,5 10
16.01.2020 16:00:00 5,8 4,0 24 13 WSW 1025,3 10
16.01.2020 15:00:00 6,2 4,4 26 14 WSW 1024,6 10
16.01.2020 14:00:00 6,8 4,1 28 15 WSW 1024,2 10
16.01.2020 13:00:00 6,8 4,5 31 17 WSW 1024,0 10
16.01.2020 12:00:00 6,7 4,9 24 13 WSW 1023,9 10
16.01.2020 11:00:00 6,8 5,1 28 15 WSW 1023,4 10
16.01.2020 10:00:00 6,1 4,7 24 13 WSW 1022,6 10
16.01.2020 09:00:00 5,8 4,1 26 14 WSW 1021,9 10
16.01.2020 08:00:00 5,2 4,0 24 13 SW 1020,7 10
16.01.2020 07:00:00 5,7 4,0 24 13 SW 1019,7 10
16.01.2020 06:00:00 5,9 4,5 24 13 SW 1019,0 10
16.01.2020 05:00:00 5,3 3,6 21 11 WSW 1018,4 10
16.01.2020 04:00:00 5,4 3,4 26 14 WSW 1017,4 10
16.01.2020 03:00:00 5,4 3,4 29 16 WSW 1016,4 10
16.01.2020 02:00:00 5,4 3,4 26 14 WSW 1015,5 10
16.01.2020 01:00:00 5,0 3,7 16 9 WSW 1014,4 10
16.01.2020 00:00:00 5,4 3,4 16 9 W 1013,1 10
15.01.2020 23:00:00 5,4 4,7 26 14 WNW 1011,6 4,4
15.01.2020 22:00:00 8,4 6,5 31 17 WSW 1009,3 10
15.01.2020 21:00:00 9,1 6,0 29 16 SW 1008,3 10
15.01.2020 20:00:00 8,7 5,8 31 17 SW 1008,1 10
15.01.2020 19:00:00 9,2 5,0 29 16 SW 1007,3 10
15.01.2020 18:00:00 9,5 5,3 28 15 SW 1007,2 10
15.01.2020 17:00:00 9,8 5,2 29 16 SSW 1006,6 10
15.01.2020 16:00:00 9,9 5,1 31 17 SW 1006,7 10
15.01.2020 15:00:00 9,9 5,1 35 19 SW 1006,6 10
15.01.2020 14:00:00 9,5 5,7 34 18 SSW 1006,4 10
15.01.2020 13:00:00 9,8 6,0 39 21 SW 1006,1 10
15.01.2020 12:00:00 9,6 6,1 37 20 SW 1005,9 10
15.01.2020 11:00:00 9,4 6,1 37 20 SSW 1005,6 10
15.01.2020 10:00:00 9,3 6,2 37 20 SSW 1005,2 10
15.01.2020 09:00:00 9,8 6,7 39 21 SW 1004,4 10
15.01.2020 08:00:00 9,0 6,3 37 20 SW 1003,8 10
15.01.2020 07:00:00 8,9 6,2 41 22 SW 1003,5 10
15.01.2020 06:00:00 9,0 6,4 44 24 SSW 1002,8 10
15.01.2020 05:00:00 9,4 6,1 41 22 SSW 1002,4 10
15.01.2020 04:00:00 9,1 6,0 42 23 SSW 1002,1 10
15.01.2020 03:00:00 9,0 5,9 41 22 SSW 1002,1 10
15.01.2020 02:00:00 8,5 5,6 39 21 SSW 1002,4 10
15.01.2020 01:00:00 8,4 5,5 35 19 SSW 1002,1 10
15.01.2020 00:00:00 8,4 5,5 37 20 SSW 1002,4 10
14.01.2020 23:00:00 7,9 5,7 34 18 S 1002,8 10
14.01.2020 22:00:00 7,7 6,3 28 15 S 1002,8 10
14.01.2020 21:00:00 7,6 6,2 29 16 SSW 1003,4 10
14.01.2020 20:00:00 7,0 6,4 24 13 SSW 1004,1 10
14.01.2020 19:00:00 5,9 5,2 16 9 SSW 1004,7 10
14.01.2020 18:00:00 5,6 4,9 18 10 SSW 1004,8 10
14.01.2020 17:00:00 5,5 4,1 18 10 SW 1004,4 10
14.01.2020 16:00:00 5,9 4,5 24 13 SW 1003,7 10
14.01.2020 15:00:00 7,0 6,1 35 19 WSW 1003,1 10
14.01.2020 14:00:00 6,9 6,2 37 20 SW 1002,1 10
14.01.2020 13:00:00 6,6 5,9 35 19 SSW 1001,6 10
14.01.2020 12:00:00 6,0 5,4 35 19 SSW 1001,6 6
14.01.2020 11:00:00 5,6 5,0 34 18 S 1002,2 7
14.01.2020 10:00:00 5,1 4,2 31 17 S 1002,5 5
14.01.2020 09:00:00 4,6 3,4 31 17 S 1002,9 7
14.01.2020 08:00:00 4,5 3,3 28 15 S 1003,9 8

tt = Température de l'air
td = dewpoint
ff = Vitesse du vent
dd = Direction du vent
ppp = reduced air pressure
vv = visibility

stations d'obs. à proximité